Location: ????????
(55.3155°N, 39.2900°E)
Time: 17:37:21
(UTC+00:00)

Cosmos 972 Rocket - Pass Details

Date: 14 April 2024
Orbit: 713 x 1150 km, 75.8° (Epoch: 24 May)

Event Time Altitude Azimuth Distance (km) Brightness Sun altitude
Exits shadow 00:07:59 27° 216° (SW) 1,505 4.9 -16.6°
Maximum altitude 00:10:57 73° 296° (WNW) 818 4.0 -16.3°
Drops below altitude 10° 00:16:02 10° 22° (NNE) 2,259 7.5 -15.8°
Sets 00:18:18 0° 24° (NNE) 3,158 8.6 -15.6°
